OPS 4682 DEB, 38433

Orbit data source: Space-Track

OPS 4682 DEB, 38433 is space debris in LEO originally from a launch on Sat, 03 Apr 1965 UTC launched from the Air Force Western Test Range (AFWTR). Debris objects in space refer to the collection of defunct objects orbiting the Earth. Examples of debris include non-operational satellites, rocket bodies, and fragments generated from explosions, collisions, or faulty payload assembly.

Loading next visibility...
Identifier
38433, 1965-027EN
Orbit
LEO
Country
Flag of USUS
Related business
Manufacturer
Unknown
Mission
Spacecraft
Bus & Motor
Unknown
Mass
Unknown
Launch date (UTC)
1965-04-03 (61 years ago)
Launch vehicle
Unknown
Launch site
Air Force Western Test Range (AFWTR)
Object type
Payload
Rocket body
Debris
Shape & HBR
Unknown shape, 0.1 m
Radar Cross Section
Medium (>0.1 m² and <1 m²)

Expand to show TLE details & history
Last TLE update: 18 hours ago

TLE from 18 hours ago
0 OPS 4682 DEB
1 38433U 65027EN  26174.80435414 -.00000083  00000-0 -25265-3 0  9996
2 38433  90.2584  13.4322 0029389 152.5227 207.7464 13.12272106632715
Epoch: 2026-06-23T19:18Z
TLE epoch observation values (Epoch: 2026-06-23T19:18:16.197Z)
Latitude
0.00002°
Longitude
171.89405°
Altitude
1,237.047 km
Speed
7.227 km/s
True Right ascension
00h 53m 43s
True Declination
0° 00' 00"
Sunlit
Object was in daylight at epoch
Visualization orbit readout
Latitude
Unknown
Longitude
Unknown
Altitude
Unknown
Speed
Unknown
Apparent Right ascension
Unknown
Apparent Declination
Unknown
Sunlit
N/A
Visualization observer readout
Local Sidereal Time
00:17:23
Azimuth
Unknown
Elevation
Unknown
Doppler factor
Unknown
Orbital elements
Apogee altitude
1,233.793 km
Perigee altitude
1,189.183 km
Semi-major axis
7,589.625 km
Eccentricity
0.00294
Inclination
90.2584°
RAAN
13.4322°
Arg. of periapsis
152.5227°
True anomaly
207.59012°
Mean anomaly
207.7464°
Eccentric anomaly
207.66821°
Mean motion
3.28256 °/min
Orbital period
109.67 mins
BSTAR
-0.00025265
Loading maneuver chart data...
Computing Atmospheric mass density...
Loading historical data...
Loading historical data...
Loading historical data...
Loading historical data...
Loading historical data...
Loading historical data...
Loading historical data...

Documentation

Showing up to 5 results
|